Вернуться в каталог

FENGYUN 1C DEB

АктивенPO
NORAD 29998·DEBRIS·🇨🇳 China

Запущен May 10, 1999 с Taiyuan Satellite Launch Center

Loading…

Ближайшие Пролёты (ближайшие 24 часа)

TLE

СвежийSource: Space-Track

Эпоха: Sep 14, 2026, 04:34 UTC

1 29998U 99025LY  26257.19092576  .00001147  00000-0  46755-3 0  9996
2 29998  99.2862 340.6366 0004556 232.1135 127.9633 14.29578643 18098

Отслеживайте FENGYUN 1C DEB в реальном времени с AllMySat

Download on the App Store